{"data":{"norad_id":68633,"epoch":"2026-09-20T04:37:11.639712Z","epoch_age_seconds":89772,"freshness":"FRESH","line1":"1 68633U 26074G   26263.19249583  .00007427  00000+0  27887-3 0  9999","line2":"2 68633  60.0209 171.7716 0034827  95.6183 264.8872 15.27611806 25293","mean_motion":15.27611806,"eccentricity":0.0034827,"inclination_deg":60.0209,"raan_deg":171.7716,"arg_perigee_deg":95.6183,"mean_anomaly_deg":264.8872,"bstar":0.00027887,"rev_number":2529,"period_min":94.264786010694,"perigee_km":459.05873795102,"apogee_km":506.8489802209,"semimajor_km":6861.090859086,"source":"CELESTRAK","updated_at":"2026-09-20T09:00:24.366064Z"}}